Time,TemperatureF,DewpointF,PressureIn,WindDirection,WindDirectionDegrees,WindSpeedMPH,WindSpeedGustMPH,Humidity,HourlyPrecipIn,Conditions,Clouds,dailyrainin,SoftwareType,DateUTC
2013-02-16 00:02:00,27.0,24.0,30.01,WSW,249,0.0,-999.0,88,-99.99,,,-99.99,,2013-02-16 05:02:00,
2013-02-16 00:12:00,27.0,24.0,30.01,WSW,249,0.0,-999.0,88,-99.99,,,-99.99,,2013-02-16 05:12:00,
2013-02-16 00:22:00,27.0,24.0,30.02,WSW,247,1.0,-999.0,88,-99.99,,,-99.99,,2013-02-16 05:22:00,
2013-02-16 00:32:00,27.0,24.0,30.02,WSW,247,0.0,-999.0,88,-99.99,,,-99.99,,2013-02-16 05:32:00,
2013-02-16 00:42:00,27.0,24.0,30.02,WSW,247,0.0,-999.0,88,-99.99,,,-99.99,,2013-02-16 05:42:00,
2013-02-16 00:52:00,26.0,23.0,30.01,SSW,211,1.0,-999.0,88,-99.99,,,-99.99,,2013-02-16 05:52:00,
2013-02-16 01:02:00,26.0,23.0,30.01,SW,227,1.0,-999.0,88,-99.99,,,-99.99,,2013-02-16 06:02:00,
2013-02-16 01:11:00,26.0,23.0,30.01,SW,227,1.0,-999.0,88,-99.99,,,-99.99,,2013-02-16 06:11:00,
2013-02-16 01:22:00,26.0,23.0,30.01,SW,227,0.0,-999.0,88,-99.99,,,-99.99,,2013-02-16 06:22:00,
2013-02-16 01:32:00,26.0,23.0,30.01,WSW,246,0.0,-999.0,88,-99.99,,,-99.99,,2013-02-16 06:32:00,
2013-02-16 01:42:00,26.0,23.0,30.01,WSW,246,0.0,-999.0,88,-99.99,,,-99.99,,2013-02-16 06:42:00,
2013-02-16 01:52:00,26.0,23.0,30.01,WNW,301,2.0,-999.0,88,-99.99,,,-99.99,,2013-02-16 06:52:00,
2013-02-16 02:02:00,25.0,22.0,30.01,WNW,302,1.0,-999.0,87,-99.99,,,-99.99,,2013-02-16 07:02:00,
2013-02-16 02:11:00,25.0,22.0,30.01,WNW,302,1.0,-999.0,87,-99.99,,,-99.99,,2013-02-16 07:11:00,
2013-02-16 02:21:00,25.0,21.0,30.00,NNW,336,1.0,-999.0,86,-99.99,,,-99.99,,2013-02-16 07:21:00,
2013-02-16 02:32:00,24.0,20.0,30.00,WNW,294,1.0,-999.0,84,-99.99,,,-99.99,,2013-02-16 07:32:00,
2013-02-16 02:42:00,24.0,20.0,30.00,WNW,294,1.0,-999.0,84,-99.99,,,-99.99,,2013-02-16 07:42:00,
2013-02-16 02:53:00,24.0,20.0,30.00,WNW,289,0.0,-999.0,83,-99.99,,,-99.99,,2013-02-16 07:53:00,
2013-02-16 03:01:00,24.0,19.0,30.00,WNW,286,1.0,-999.0,81,-99.99,,,-99.99,,2013-02-16 08:01:00,
2013-02-16 03:11:00,24.0,19.0,30.00,WNW,286,1.0,-999.0,81,-99.99,,,-99.99,,2013-02-16 08:11:00,
2013-02-16 03:21:00,23.0,18.0,30.00,WSW,248,1.0,-999.0,80,-99.99,,,-99.99,,2013-02-16 08:21:00,
2013-02-16 03:31:00,23.0,18.0,30.00,WSW,248,0.0,-999.0,80,-99.99,,,-99.99,,2013-02-16 08:31:00,
2013-02-16 03:42:00,23.0,18.0,30.00,WSW,248,0.0,-999.0,80,-99.99,,,-99.99,,2013-02-16 08:42:00,
2013-02-16 03:52:00,22.0,17.0,29.99,WSW,248,0.0,-999.0,80,-99.99,,,-99.99,,2013-02-16 08:52:00,
2013-02-16 04:02:00,21.0,16.0,29.99,WSW,248,0.0,-999.0,81,-99.99,,,-99.99,,2013-02-16 09:02:00,
2013-02-16 04:11:00,21.0,16.0,29.99,WSW,248,0.0,-999.0,81,-99.99,,,-99.99,,2013-02-16 09:11:00,
2013-02-16 04:21:00,21.0,16.0,30.00,WSW,248,0.0,-999.0,81,-99.99,,,-99.99,,2013-02-16 09:21:00,
2013-02-16 04:32:00,20.0,15.0,30.00,WSW,248,0.0,-999.0,82,-99.99,,,-99.99,,2013-02-16 09:32:00,
2013-02-16 04:42:00,20.0,15.0,30.00,WSW,248,0.0,-999.0,82,-99.99,,,-99.99,,2013-02-16 09:42:00,
2013-02-16 04:52:00,20.0,16.0,30.00,WSW,248,0.0,-999.0,84,-99.99,,,-99.99,,2013-02-16 09:52:00,
2013-02-16 05:01:00,20.0,16.0,29.99,WSW,248,0.0,-999.0,84,-99.99,,,-99.99,,2013-02-16 10:01:00,
2013-02-16 05:11:00,20.0,16.0,29.99,WSW,248,0.0,-999.0,84,-99.99,,,-99.99,,2013-02-16 10:11:00,
2013-02-16 05:21:00,20.0,16.0,29.99,WSW,248,0.0,-999.0,85,-99.99,,,-99.99,,2013-02-16 10:21:00,
2013-02-16 05:32:00,21.0,17.0,29.99,NW,313,1.0,-999.0,85,-99.99,,,-99.99,,2013-02-16 10:32:00,
2013-02-16 05:42:00,21.0,17.0,29.99,NW,313,1.0,-999.0,85,-99.99,,,-99.99,,2013-02-16 10:42:00,
2013-02-16 05:52:00,21.0,17.0,29.99,NW,313,1.0,-999.0,85,-99.99,,,-99.99,,2013-02-16 10:52:00,
2013-02-16 06:02:00,21.0,17.0,29.99,NW,313,0.0,-999.0,84,-99.99,,,-99.99,,2013-02-16 11:02:00,
2013-02-16 06:11:00,21.0,17.0,29.99,NW,313,0.0,-999.0,84,-99.99,,,-99.99,,2013-02-16 11:11:00,
2013-02-16 06:22:00,21.0,17.0,29.99,WSW,255,1.0,-999.0,84,-99.99,,,-99.99,,2013-02-16 11:22:00,
2013-02-16 06:32:00,21.0,17.0,29.99,West,279,2.0,-999.0,83,-99.99,,,-99.99,,2013-02-16 11:32:00,
2013-02-16 06:42:00,21.0,17.0,29.99,West,279,2.0,-999.0,83,-99.99,,,-99.99,,2013-02-16 11:42:00,
2013-02-16 06:52:00,21.0,16.0,29.99,West,274,2.0,-999.0,82,-99.99,,,-99.99,,2013-02-16 11:52:00,
2013-02-16 07:02:00,21.0,16.0,30.00,West,277,1.0,-999.0,81,-99.99,,,-99.99,,2013-02-16 12:02:00,
2013-02-16 07:12:00,21.0,16.0,30.00,West,277,1.0,-999.0,81,-99.99,,,-99.99,,2013-02-16 12:12:00,
2013-02-16 07:22:00,20.0,15.0,30.02,NW,309,0.0,-999.0,80,-99.99,,,-99.99,,2013-02-16 12:22:00,
2013-02-16 07:32:00,20.0,14.0,30.02,WNW,283,1.0,-999.0,78,-99.99,,,-99.99,,2013-02-16 12:32:00,
2013-02-16 07:42:00,20.0,14.0,30.02,WNW,283,1.0,-999.0,78,-99.99,,,-99.99,,2013-02-16 12:42:00,
2013-02-16 07:52:00,19.0,13.0,30.02,WNW,298,1.0,-999.0,77,-99.99,,,-99.99,,2013-02-16 12:52:00,
2013-02-16 08:02:00,19.0,13.0,30.02,WNW,298,0.0,-999.0,77,-99.99,,,-99.99,,2013-02-16 13:02:00,
2013-02-16 08:12:00,19.0,13.0,30.02,WNW,298,0.0,-999.0,77,-99.99,,,-99.99,,2013-02-16 13:12:00,
2013-02-16 08:22:00,20.0,14.0,30.02,WSW,239,0.0,-999.0,77,-99.99,,,-99.99,,2013-02-16 13:22:00,
2013-02-16 08:32:00,20.0,14.0,30.02,West,265,3.0,-999.0,77,-99.99,,,-99.99,,2013-02-16 13:32:00,
2013-02-16 08:41:00,20.0,14.0,30.02,West,265,3.0,-999.0,77,-99.99,,,-99.99,,2013-02-16 13:41:00,
2013-02-16 08:52:00,20.0,14.0,30.02,WSW,247,2.0,-999.0,77,-99.99,,,-99.99,,2013-02-16 13:52:00,
2013-02-16 09:01:00,20.0,14.0,30.02,WSW,242,2.0,-999.0,77,-99.99,,,-99.99,,2013-02-16 14:01:00,
2013-02-16 09:11:00,20.0,14.0,30.02,WSW,242,2.0,-999.0,77,-99.99,,,-99.99,,2013-02-16 14:11:00,
2013-02-16 09:21:00,21.0,15.0,30.02,West,277,1.0,-999.0,77,-99.99,,,-99.99,,2013-02-16 14:21:00,
2013-02-16 09:32:00,21.0,15.0,30.01,WNW,289,3.0,-999.0,76,-99.99,,,-99.99,,2013-02-16 14:32:00,
2013-02-16 09:42:00,21.0,15.0,30.01,WNW,289,3.0,-999.0,76,-99.99,,,-99.99,,2013-02-16 14:42:00,
2013-02-16 09:52:00,21.0,14.0,30.01,NW,309,3.0,-999.0,75,-99.99,,,-99.99,,2013-02-16 14:52:00,
2013-02-16 10:02:00,21.0,14.0,30.01,WSW,240,2.0,-999.0,75,-99.99,,,-99.99,,2013-02-16 15:02:00,
2013-02-16 10:11:00,21.0,14.0,30.01,WSW,240,2.0,-999.0,75,-99.99,,,-99.99,,2013-02-16 15:11:00,
2013-02-16 10:22:00,22.0,15.0,30.01,WSW,240,1.0,-999.0,75,-99.99,,,-99.99,,2013-02-16 15:22:00,
2013-02-16 10:32:00,23.0,16.0,30.01,WNW,294,3.0,-999.0,73,-99.99,,,-99.99,,2013-02-16 15:32:00,
2013-02-16 10:42:00,23.0,16.0,30.01,WNW,294,3.0,-999.0,73,-99.99,,,-99.99,,2013-02-16 15:42:00,
2013-02-16 10:52:00,23.0,15.0,30.01,West,261,2.0,-999.0,72,-99.99,,,-99.99,,2013-02-16 15:52:00,
2013-02-16 11:01:00,23.0,15.0,30.00,WNW,296,2.0,-999.0,71,-99.99,,,-99.99,,2013-02-16 16:01:00,
2013-02-16 11:11:00,23.0,15.0,30.00,WNW,296,2.0,-999.0,71,-99.99,,,-99.99,,2013-02-16 16:11:00,
2013-02-16 11:21:00,23.0,15.0,30.00,NNE,15,3.0,-999.0,71,-99.99,,,-99.99,,2013-02-16 16:21:00,
2013-02-16 11:32:00,23.0,16.0,30.00,WNW,286,3.0,-999.0,73,-99.99,,,-99.99,,2013-02-16 16:32:00,
2013-02-16 11:42:00,23.0,16.0,30.00,WNW,286,3.0,-999.0,73,-99.99,,,-99.99,,2013-02-16 16:42:00,
2013-02-16 11:52:00,23.0,15.0,29.99,West,274,1.0,-999.0,71,-99.99,,,-99.99,,2013-02-16 16:52:00,
2013-02-16 12:01:00,23.0,15.0,29.99,NNE,15,1.0,-999.0,71,-99.99,,,-99.99,,2013-02-16 17:01:00,
2013-02-16 12:11:00,23.0,15.0,29.99,NNE,15,1.0,-999.0,71,-99.99,,,-99.99,,2013-02-16 17:11:00,
2013-02-16 12:22:00,23.0,16.0,29.98,NNE,15,3.0,-999.0,73,-99.99,,,-99.99,,2013-02-16 17:22:00,
2013-02-16 12:32:00,22.0,15.0,29.98,NW,313,3.0,-999.0,75,-99.99,,,-99.99,,2013-02-16 17:32:00,
2013-02-16 12:42:00,22.0,15.0,29.98,NW,313,3.0,-999.0,75,-99.99,,,-99.99,,2013-02-16 17:42:00,
2013-02-16 12:52:00,23.0,16.0,29.97,NNW,327,2.0,-999.0,74,-99.99,,,-99.99,,2013-02-16 17:52:00,
2013-02-16 13:02:00,23.0,15.0,29.97,NW,311,2.0,-999.0,72,-99.99,,,-99.99,,2013-02-16 18:02:00,
2013-02-16 13:11:00,23.0,15.0,29.96,NE,42,3.0,-999.0,72,-99.99,,,-99.99,,2013-02-16 18:11:00,
2013-02-16 13:21:00,23.0,15.0,29.96,NE,42,3.0,-999.0,72,-99.99,,,-99.99,,2013-02-16 18:21:00,
2013-02-16 13:33:00,24.0,16.0,29.96,WNW,284,2.0,-999.0,71,-99.99,,,-99.99,,2013-02-16 18:33:00,
2013-02-16 13:42:00,24.0,16.0,29.96,WNW,284,2.0,-999.0,71,-99.99,,,-99.99,,2013-02-16 18:42:00,
2013-02-16 13:52:00,23.0,15.0,29.96,WSW,257,4.0,-999.0,71,-99.99,,,-99.99,,2013-02-16 18:52:00,
2013-02-16 14:02:00,23.0,15.0,29.96,WNW,285,3.0,-999.0,71,-99.99,,,-99.99,,2013-02-16 19:02:00,
2013-02-16 14:11:00,23.0,15.0,29.96,WNW,285,3.0,-999.0,71,-99.99,,,-99.99,,2013-02-16 19:11:00,
2013-02-16 14:22:00,23.0,14.0,29.95,NE,36,2.0,-999.0,69,-99.99,,,-99.99,,2013-02-16 19:22:00,
2013-02-16 14:32:00,23.0,15.0,29.95,North,355,3.0,-999.0,72,-99.99,,,-99.99,,2013-02-16 19:32:00,
2013-02-16 14:42:00,23.0,15.0,29.95,North,355,3.0,-999.0,72,-99.99,,,-99.99,,2013-02-16 19:42:00,
2013-02-16 14:52:00,23.0,15.0,29.95,WNW,282,3.0,-999.0,70,-99.99,,,-99.99,,2013-02-16 19:52:00,
2013-02-16 15:01:00,23.0,15.0,29.95,NE,37,4.0,-999.0,70,-99.99,,,-99.99,,2013-02-16 20:01:00,
2013-02-16 15:11:00,23.0,14.0,29.95,NNW,333,3.0,-999.0,68,-99.99,,,-99.99,,2013-02-16 20:11:00,
2013-02-16 15:22:00,23.0,14.0,29.95,NNW,333,3.0,-999.0,68,-99.99,,,-99.99,,2013-02-16 20:22:00,
2013-02-16 15:32:00,23.0,14.0,29.94,NW,310,2.0,-999.0,69,-99.99,,,-99.99,,2013-02-16 20:32:00,
2013-02-16 15:42:00,23.0,14.0,29.94,NW,310,2.0,-999.0,69,-99.99,,,-99.99,,2013-02-16 20:42:00,
2013-02-16 15:52:00,23.0,13.0,29.94,NNW,328,2.0,-999.0,66,-99.99,,,-99.99,,2013-02-16 20:52:00,
2013-02-16 16:02:00,23.0,13.0,29.95,WNW,292,2.0,-999.0,66,-99.99,,,-99.99,,2013-02-16 21:02:00,
2013-02-16 16:11:00,23.0,13.0,29.95,WNW,292,2.0,-999.0,66,-99.99,,,-99.99,,2013-02-16 21:11:00,
2013-02-16 16:21:00,23.0,13.0,29.95,WNW,292,2.0,-999.0,66,-99.99,,,-99.99,,2013-02-16 21:21:00,
2013-02-16 16:32:00,22.0,12.0,29.94,North,351,2.0,-999.0,64,-99.99,,,-99.99,,2013-02-16 21:32:00,
2013-02-16 16:42:00,22.0,12.0,29.94,North,351,2.0,-999.0,64,-99.99,,,-99.99,,2013-02-16 21:42:00,
2013-02-16 16:52:00,22.0,11.0,29.94,NNE,22,1.0,-999.0,61,-99.99,,,-99.99,,2013-02-16 21:52:00,
2013-02-16 17:01:00,22.0,10.0,29.94,North,5,3.0,-999.0,59,-99.99,,,-99.99,,2013-02-16 22:01:00,
2013-02-16 17:11:00,22.0,10.0,29.94,North,5,3.0,-999.0,59,-99.99,,,-99.99,,2013-02-16 22:11:00,
2013-02-16 17:21:00,21.0,9.0,29.96,NNW,346,1.0,-999.0,58,-99.99,,,-99.99,,2013-02-16 22:21:00,
2013-02-16 17:32:00,21.0,9.0,29.96,NNW,337,2.0,-999.0,59,-99.99,,,-99.99,,2013-02-16 22:32:00,
2013-02-16 17:42:00,21.0,9.0,29.96,NNW,337,2.0,-999.0,59,-99.99,,,-99.99,,2013-02-16 22:42:00,
2013-02-16 17:52:00,21.0,9.0,29.95,NNW,337,0.0,-999.0,60,-99.99,,,-99.99,,2013-02-16 22:52:00,
2013-02-16 18:02:00,21.0,10.0,29.96,NNW,337,0.0,-999.0,62,-99.99,,,-99.99,,2013-02-16 23:02:00,
2013-02-16 18:11:00,21.0,10.0,29.96,NNW,337,0.0,-999.0,62,-99.99,,,-99.99,,2013-02-16 23:11:00,
2013-02-16 18:21:00,20.0,9.0,29.95,North,9,1.0,-999.0,62,-99.99,,,-99.99,,2013-02-16 23:21:00,
2013-02-16 18:32:00,20.0,9.0,29.95,NNW,333,0.0,-999.0,62,-99.99,,,-99.99,,2013-02-16 23:32:00,
2013-02-16 18:42:00,20.0,9.0,29.95,NNW,333,0.0,-999.0,62,-99.99,,,-99.99,,2013-02-16 23:42:00,
2013-02-16 18:52:00,20.0,9.0,29.96,NW,322,0.0,-999.0,63,-99.99,,,-99.99,,2013-02-16 23:52:00,
2013-02-16 19:02:00,19.0,9.0,29.97,NW,322,0.0,-999.0,63,-99.99,,,-99.99,,2013-02-17 00:02:00,
2013-02-16 19:12:00,19.0,9.0,29.97,NW,322,0.0,-999.0,63,-99.99,,,-99.99,,2013-02-17 00:12:00,
2013-02-16 19:22:00,19.0,9.0,29.95,NW,322,0.0,-999.0,64,-99.99,,,-99.99,,2013-02-17 00:22:00,
2013-02-16 19:32:00,19.0,9.0,29.96,NW,322,0.0,-999.0,63,-99.99,,,-99.99,,2013-02-17 00:32:00,
2013-02-16 19:42:00,19.0,9.0,29.96,NW,322,0.0,-999.0,63,-99.99,,,-99.99,,2013-02-17 00:42:00,
2013-02-16 19:52:00,19.0,9.0,29.96,NW,322,0.0,-999.0,65,-99.99,,,-99.99,,2013-02-17 00:52:00,
2013-02-16 20:01:00,19.0,9.0,29.95,SSW,203,1.0,-999.0,64,-99.99,,,-99.99,,2013-02-17 01:01:00,
2013-02-16 20:11:00,19.0,9.0,29.95,SSW,203,1.0,-999.0,64,-99.99,,,-99.99,,2013-02-17 01:11:00,
2013-02-16 20:21:00,19.0,9.0,29.94,SSW,213,1.0,-999.0,63,-99.99,,,-99.99,,2013-02-17 01:21:00,
2013-02-16 20:32:00,19.0,9.0,29.94,SSW,213,0.0,-999.0,63,-99.99,,,-99.99,,2013-02-17 01:32:00,
2013-02-16 20:41:00,19.0,9.0,29.94,SSW,213,0.0,-999.0,63,-99.99,,,-99.99,,2013-02-17 01:41:00,
2013-02-16 20:52:00,18.0,8.0,29.94,SSW,213,0.0,-999.0,63,-99.99,,,-99.99,,2013-02-17 01:52:00,
2013-02-16 21:01:00,18.0,7.0,29.94,NW,314,1.0,-999.0,61,-99.99,,,-99.99,,2013-02-17 02:01:00,
2013-02-16 21:11:00,18.0,7.0,29.94,NW,314,1.0,-999.0,61,-99.99,,,-99.99,,2013-02-17 02:11:00,
2013-02-16 21:21:00,18.0,7.0,29.92,NW,321,2.0,-999.0,61,-99.99,,,-99.99,,2013-02-17 02:21:00,
2013-02-16 21:32:00,18.0,7.0,29.93,WNW,301,1.0,-999.0,61,-99.99,,,-99.99,,2013-02-17 02:32:00,
2013-02-16 21:42:00,18.0,7.0,29.93,WNW,301,1.0,-999.0,61,-99.99,,,-99.99,,2013-02-17 02:42:00,
2013-02-16 21:52:00,18.0,7.0,29.92,NNW,340,1.0,-999.0,61,-99.99,,,-99.99,,2013-02-17 02:52:00,
2013-02-16 22:02:00,18.0,7.0,29.92,ENE,57,1.0,-999.0,61,-99.99,,,-99.99,,2013-02-17 03:02:00,
2013-02-16 22:11:00,18.0,7.0,29.92,ENE,57,1.0,-999.0,61,-99.99,,,-99.99,,2013-02-17 03:11:00,
2013-02-16 22:21:00,18.0,7.0,29.91,NNE,17,2.0,-999.0,61,-99.99,,,-99.99,,2013-02-17 03:21:00,
2013-02-16 22:32:00,18.0,7.0,29.92,North,355,2.0,-999.0,62,-99.99,,,-99.99,,2013-02-17 03:32:00,
2013-02-16 22:42:00,18.0,7.0,29.92,North,355,2.0,-999.0,62,-99.99,,,-99.99,,2013-02-17 03:42:00,
2013-02-16 22:52:00,18.0,7.0,29.91,NE,51,1.0,-999.0,62,-99.99,,,-99.99,,2013-02-17 03:52:00,
2013-02-16 23:01:00,18.0,7.0,29.91,NNE,26,2.0,-999.0,62,-99.99,,,-99.99,,2013-02-17 04:01:00,
2013-02-16 23:11:00,18.0,7.0,29.91,NNW,342,2.0,-999.0,62,-99.99,,,-99.99,,2013-02-17 04:11:00,
2013-02-16 23:21:00,18.0,7.0,29.91,NNW,342,2.0,-999.0,62,-99.99,,,-99.99,,2013-02-17 04:21:00,
2013-02-16 23:32:00,18.0,7.0,29.90,North,360,2.0,-999.0,61,-99.99,,,-99.99,,2013-02-17 04:32:00,
2013-02-16 23:42:00,18.0,7.0,29.90,North,360,2.0,-999.0,61,-99.99,,,-99.99,,2013-02-17 04:42:00,
2013-02-16 23:52:00,18.0,6.0,29.89,NNE,32,3.0,-999.0,60,-99.99,,,-99.99,,2013-02-17 04:52:00,